Regional Weather Roundup
Issued by NWS Charleston, SC

Current Version | Previous Version | Graphics & Text | Print | Product List | Glossary On
Versions: 1 2 3 4 5 6 7 8 9 10 11 12 13 14 15 16 17 18 19 20 21 22 23 24 25 26 27 28 29 30 31 32 33 34 35 36 37 38 39 40 41 42 43 44 45 46 47 48 49 50
000
ASUS42 KCHS 010525
RWRCHS

REGIONAL WEATHER ROUNDUP
NATIONAL WEATHER SERVICE CHARLESTON SC
100 AM EDT WED OCT 01 2014

NOTE: "FAIR" INDICATES FEW OR NO CLOUDS BELOW 12,000 FEET WITH NO
SIGNIFICANT WEATHER AND/OR OBSTRUCTIONS TO VISIBILITY.

NOT ALL STATIONS ARE QUALITY CONTROLLED BY THE NATIONAL
WEATHER SERVICE. USE DATA WITH CAUTION...ESPECIALLY
DEWPOINT OBSERVATIONS.

SCZ027-030-031-034>040-042>050-010600-
...SOUTH CAROLINA...

CITY           SKY/WX    TMP DP  RH WIND       PRES   REMARKS
N CHARLESTON   CLEAR     69  65  86 CALM      29.90F
WATERFRONT PRK   N/A     72 N/A N/A W6          N/A
FORT JOHNSON   NOT AVBL
MOUNT PLEASANT FAIR      64  64 100 CALM      29.90F
JOHNS ISLAND   CLEAR     66  66 100 CALM      29.90F
PINOPOLIS        N/A     72  70  94 CALM      29.84R
MONCKS CORNER  FAIR      64  64 100 CALM      29.90F
SUMMERVILLE    FAIR      64  64 100 CALM      29.91F
BEAUFORT MCAS  CLEAR     66  65  96 CALM      29.90F
BEAUFORT ARPT  FAIR      68  68 100 CALM      29.89F
HILTON HEAD IS CLEAR     66  66 100 CALM      29.91F
GEORGETOWN     NOT AVBL
WALTERBORO     CLEAR     63 N/A N/A CALM      29.91F
ORANGEBURG     CLEAR     63  62  97 CALM      29.92S
BARNWELL       FAIR      64  63  94 CALM      29.92F
AIKEN          FAIR      63  63 100 CALM      29.96S
MANNING        FAIR      63 N/A N/A CALM      29.91F
KINGSTREE      NOT AVBL
COLUMBIA       CLEAR     65  61  87 CALM      29.92S
SUMTER         CLEAR     63  60  88 CALM      29.91R
FLORENCE       CLEAR     63  61  93 CALM      29.92R
MYRTLE BEACH   CLEAR     64  63  94 NW3       29.90S
N MYRTLE BEACH CLEAR     64  63  96 CALM      29.90S

$$

GAZ063-065-086>088-099>101-113>116-118-119-134-136>141-150-010600-
...GEORGIA...

CITY           SKY/WX    TMP DP  RH WIND       PRES   REMARKS
SAVANNAH ARPT  CLEAR     69  66  90 CALM      29.90F
HUNTER AAF     CLEAR     66  66 100 CALM      29.88F FOG
FORT STEWART   CLEAR     66  64  95 CALM      29.89F
STATESBORO     NOT AVBL
SYLVANIA       CLEAR     67  67  98 CALM      29.92S
CLAXTON        FAIR      64  64 100 CALM      29.91S
THOMSON        CLEAR     64  64 100 CALM      29.97S
AUGUSTA-BUSH   PTCLDY    60  60 100 CALM      29.91F
AUGUSTA-DANIEL CLEAR     70  64  81 N3        29.93S
SWAINSBORO     FAIR      66  66 100 CALM      29.93S
VIDALIA        CLEAR     68  66  94 CALM      29.92S
ALMA           CLEAR     67  66  97 CALM      29.90S FOG
WAYCROSS       CLEAR     72  72 100 CALM      29.90F
JESUP          FAIR      68  68 100 CALM      29.91S
BRUNSWICK        N/A     68  64  88 CALM      29.90F
SAINT SIMONS   CLEAR     68  66  93 CALM      29.90F

$$

SCZ027-028-034-036>038-045-046-048>050-GAZ119-141-010600-
...LAKE AND SUPPLEMENTAL COASTAL OBSERVATIONS...

STATION/POSITION TIME  TEMP    WIND        PRES    WAVE   SWELL
                       AIR SEA DIR/SP/G            HT/PER HT/PER/DIR
                 (UTC) (F)     (DEG/KT/KT) (MB)    (FT/S) (FT/S/D)
UPR LAKE MARION  NOT AVBL
WINYAH BAY       0500   69     320/  5     1012.0S
LAKE MURRAY      0400   69        CALM     1012.9R
ACE BASIN NERRS  0500   66        CALM     1013.0S
FORT PULASKI     0500   71     310/  2/  3 1012.7F
SAPELO ISLAND    NOT AVBL

$$

ANZ835-935-AMZ111-154-330-350-352-354-374-450-454-472-010600-
...C-MAN AND BUOY OBSERVATIONS...

STATION/POSITION TIME  TEMP    WIND        PRES    WAVE   SWELL
                       AIR SEA DIR/SP/G            HT/PER HT/PER/DIR
                 (UTC) (F)     (DEG/KT/KT) (MB)    (FT/S) (FT/S/D)
FOLLY BEACH CMAN 0500   69     280/  3/  4 1012.8F
BUOY 41004       0500   77 81  360/  8/ 10 1011.5S   3/ 6   3/ 6
BUOY 41008       0500   77 79   50/  8/ 10 1012.1F   3/ 6   3/ 60/ 6
5E ST. MARYS GA  0500      79                N/A     3/ 6
FRYING PAN BUOY  NOT AVBL
BUOY 41025       0500   72     350/ 16/ 19 1011.1R   4/ 6   2/ 80/14
CAPE LOOKOUT NC  0500   70     360/ 10/ 13 1011.7S
BUOY 41002       0445   78 80   20/  8/ 10 1008.7F   3/ 7   3/ 50/ 7
BUOY 41010       0500   81 84  350/  6/  8 1010.8R   3/ 8   2/ 60/ 8
BUOY 41012       NOT AVBL
ST AUGUSTINE FL  0500   77      20/ 12/ 13 1012.3F
CAPERS NEARSHORE 0400   74     310/  6/  8   N/A
FRIPP NEARSHORE  NOT AVBL


$$


USA.gov is the U.S. government's official web portal to all federal, state and local government web resources and services.